Location: *
(46.4000°N, 12.6667°E)
Time: 13:49:30
(UTC+00:00)

N. Korean satellite - Visible Passes

Search period start: 25 February 2021 00:00
Search period end: 07 March 2021 00:00
Orbit: 451 x 503 km, 97.2° (Epoch: 24 February)

Date Brightness Start Highest point End Pass type
(mag) Time Alt. Az. Time Alt. Az. Time Alt. Az.
25 Feb 10.1 03:28:06 10° ENE 03:28:45 10° E 03:29:25 10° E visible
25 Feb 6.5 04:58:59 10° N 05:02:23 55° WNW 05:05:50 10° SSW visible
26 Feb 6.9 04:32:13 10° NNE 04:35:42 66° E 04:39:12 10° S visible
27 Feb 8.6 04:05:47 10° NNE 04:08:54 30° E 04:12:02 10° SSE visible
28 Feb 9.7 03:39:53 10° NE 03:42:00 15° E 03:44:07 10° SE visible
28 Feb 7.0 05:12:12 10° N 05:15:28 37° WNW 05:18:46 10° SW visible
01 Mar 6.4 04:45:17 10° N 04:48:48 83° WNW 04:52:21 10° SSW visible
02 Mar 7.8 04:18:38 10° NNE 04:22:02 43° E 04:25:27 10° S visible
03 Mar 9.2 03:52:23 10° NE 03:55:10 21° E 03:57:58 10° SE visible
04 Mar 10.1 03:27:20 10° ENE 03:28:12 11° E 03:29:04 10° ESE visible
04 Mar 6.6 04:58:21 10° N 05:01:50 56° WNW 05:05:20 10° SSW visible
05 Mar 7.0 04:31:33 10° NNE 04:35:05 66° E 04:38:40 10° S visible
06 Mar 8.6 04:05:04 10° NNE 04:08:15 30° E 04:11:28 10° SSE visible
